Other Surface Observations
Issued by NWS Jacksonville, FL

Home | Current Version | Previous Version | Text Only | Print | Product List | Glossary On
Versions: 1 2 3 4 5 6 7 8 9 10 11 12 13 14 15 16 17 18 19 20 21 22 23 24 25 26 27 28 29 30 31 32 33 34 35 36 37 38 39 40 41 42 43 44 45 46 47 48 49 50
000
SXUS52 KJAX 212313
OSOJAX
OTHER SURFACE OBSERVATIONS
NATIONAL WEATHER SERVICE JACKSONVILLE FL
600 PM EST TUE NOV 21 2017

FLZ020>025-030>033-035>038-040-220000-
...FLORIDA...

CITY           SKY/WX    TMP DP  RH WIND       PRES   REMARKS
CECIL FIELD    PTCLDY    66  66 100 CALM      29.95R
HERLONG FIELD  NOT AVBL
FERNANDINA BCH NOT AVBL
LAKE CITY      CLOUDY    64  64 100 W5        29.98R
JUNIPER SPGS   NOT AVBL
BUNNELL        NOT AVBL
KEYSTONE HGTS  CLOUDY    68  68 100 SE7       29.96R
$$

GAZ132>136-149>154-162>166-220000-
...GEORGIA...

CITY           SKY/WX    TMP DP  RH WIND       PRES   REMARKS
JESUP          LGT RAIN  66  63  88 CALM      30.01R
HOMERVILLE     LGT RAIN  63  63 100 NW3       30.00R
SWAINSBORO     FAIR      61  61 100 E6        30.03S
CORDELE        NOT AVBL
EASTMAN        FAIR      63  52  67 CALM      30.03S
$$

PLEASE NOTE:  THESE OBSERVATIONS ARE NOT QUALITY CONTROLLED AND MAY
NOT BE AVAILABLE AT ALL TIMES.
$$




USA.gov is the U.S. government's official web portal to all federal, state and local government web resources and services.